[[{"header":{"parameterUnit":"m.s-1","parameterCategory":1,"la1":30.2991,"la2":30.254,"lo1":-89.0895,"lo2":-89.0444,"dy":0.0017,"dx":0.0017,"nx":28,"ny":28,"refTime":"2025-12-21T09:00:00:Z","depth":0,"parameterNumber":2,"parameterNumberName":"U-component_of_WINDS"},"data":[0,0,0,0,0,0,0,0,0,0,0,0,0,0,0,0,0,0,0,0,0,0,0,0,0,0,0,0,0,0,0,0,0,0,0,0,0,0,0,0,0,0,0,0,0,0,0,0,0,0,0,0,0,0,0,0,0,0,-5.3612,-5.3612,0,-5.3611,-5.3611,-5.3611,-5.3486,-5.3483,-5.348,-5.3477,-5.3474,-5.3477,-5.348,0,0,0,0,0,0,0,0,0,0,0,0,0,-5.3509,-5.3512,-5.3612,-5.3612,-5.3612,-5.3611,-5.3611,-5.3611,-5.3487,-5.3483,-5.3479,-5.3475,-5.3473,-5.3476,-5.348,0,0,0,0,0,0,0,0,0,0,0,0,0,-5.3536,-5.3513,-5.3612,-5.355,-5.3545,-5.3611,-5.3611,-5.3611,-5.3488,-5.3483,-5.3478,-5.3473,-5.3472,-5.3476,-5.348,-5.3605,0,0,-5.3494,-5.3496,0,0,0,0,0,0,0,0,-5.3534,-5.354,-5.3559,-5.3555,-5.3549,-5.3544,-5.3573,-5.3609,-5.3489,-5.3509,-5.3477,-5.3471,-5.3501,-5.3503,-5.3513,-5.3605,-5.3605,-5.3494,-5.3497,-5.3499,-5.35,0,0,0,0,0,0,0,-5.3533,-5.3539,-5.3612,-5.356,-5.3553,-5.3523,-5.3522,-5.3579,-5.3532,-5.3507,-5.3498,-5.35,-5.3497,-5.3509,-5.3512,-5.3605,-5.3494,-5.3498,-5.3501,-5.3503,-5.3803,-5.3808,0,0,0,0,0,0,-5.3539,-5.3538,-5.3612,-5.3612,-5.3529,-5.3529,-5.3527,-5.355,-5.3531,-5.3524,-5.3504,-5.3494,-5.3504,-5.3507,-5.3511,-5.3658,-5.3499,-5.3503,-5.3505,-5.3798,-5.3804,-5.381,0,0,0,0,0,0,-5.3538,-5.3547,-5.3612,-5.3573,-5.3578,-5.3536,-5.3563,-5.3553,-5.3564,-5.3529,-5.352,-5.3525,-5.35,-5.3505,-5.3584,-5.3656,-5.3505,-5.3509,-5.3791,-5.38,-5.3807,-5.3952,0,0,0,0,0,0,-5.3535,-5.3547,-5.3593,-5.3575,-5.3581,-5.3684,-5.3567,-5.3556,-5.3573,-5.356,-5.3546,-5.3539,-5.3497,-5.3578,-5.3588,-5.366,-5.3512,-5.3785,-5.3795,-5.3805,-5.394,-5.3964,-5.3984,0,0,0,0,0,-5.3532,-5.3633,-5.3596,-5.3606,-5.3638,-5.3688,-5.3692,-5.3641,-5.3579,-5.3626,-5.3604,-5.354,-5.3647,-5.3587,-5.3597,-5.3671,-5.378,-5.3792,-5.3804,-5.393,-5.3959,-5.3983,0,0,0,0,0,0,-5.3659,-5.3629,-5.3588,-5.3686,-5.3691,-5.3667,-5.3723,-5.3673,-5.3694,-5.3681,-5.3617,-5.3616,-5.3705,-5.3696,-5.3629,-5.3793,-5.3703,-5.3717,-5.3795,-5.3822,-5.3843,-5.3843,-5.3516,0,0,0,0,0,-5.3699,-5.3742,-5.3713,-5.3803,-5.3807,-5.3766,-5.3786,-5.3747,-5.3749,-5.375,-5.3734,-5.3738,-5.3773,-5.3797,-5.3827,-5.3939,-5.3936,-5.3996,-5.4018,-5.4036,-5.4049,-5.411,-5.4137,-5.3849,-5.3849,-5.3849,0,0,-5.378,-5.3769,-5.38,-5.3828,-5.3827,-5.3874,-5.3768,-5.3821,-5.3856,-5.3758,-5.3831,-5.3821,-5.3822,-5.3919,-5.396,-5.3914,-5.4128,-5.4051,-5.4066,-5.4069,-5.4125,-5.4153,-5.4177,-5.3858,-5.3856,-5.3855,0,0,-5.3953,-5.3949,-5.4024,-5.4027,-5.4028,-5.4001,-5.402,-5.4005,-5.3994,-5.4068,-5.3996,-5.4037,-5.4098,-5.4103,-5.4113,-5.4295,-5.4238,-5.4307,-5.4419,-5.448,-5.4503,-5.4523,-5.4589,-5.4613,-5.432,-5.432,-5.4321,0,-5.4053,-5.4121,-5.4069,-5.4128,-5.4144,-5.406,-5.4137,-5.4142,-5.4153,-5.4166,-5.4115,-5.4192,-5.4187,-5.4285,-5.433,-5.4341,-5.4361,-5.4306,-5.4504,-5.4523,-5.4541,-5.4604,-5.4629,-5.4329,-5.4328,-5.4327,-5.4326,0,-5.4247,-5.4296,-5.4356,-5.4372,-5.4394,-5.4462,-5.4421,-5.445,-5.4411,-5.439,-5.4468,-5.446,-5.4488,-5.4509,-5.447,-5.4603,-5.4575,-5.4515,-5.4422,-5.4578,-5.4636,-5.4659,-5.4341,-5.4338,-5.4335,-5.4333,0,0,-5.4494,-5.4484,-5.4507,-5.4514,-5.4513,-5.455,-5.4616,-5.4645,-5.4673,-5.4685,-5.4739,-5.4796,-5.4742,-5.4754,-5.4716,-5.477,-5.4917,-5.4703,-5.4702,-5.4744,-5.5065,-5.511,-5.5138,-5.488,-5.4884,-5.4888,-5.5066,0,-5.4662,-5.4773,-5.4731,-5.4846,-5.4892,-5.4817,-5.4874,-5.4881,-5.4864,-5.4901,-5.4883,-5.4924,-5.4849,-5.4857,-5.4907,-5.4888,-5.4981,-5.4875,-5.493,-5.4933,-5.4932,-5.5168,-5.5214,-5.5382,-5.5088,-5.5091,-5.5094,0,-5.487,-5.4894,-5.5015,-5.501,-5.5028,-5.508,-5.5106,-5.5143,-5.515,-5.5134,-5.5152,-5.5103,-5.5169,-5.5079,-5.517,-5.5099,-5.512,-5.5115,-5.5121,-5.5123,-5.5022,-5.5177,-5.5434,-5.546,-5.5129,-5.5126,-5.5123,0,-5.504,-5.5102,-5.5184,-5.5193,-5.5188,-5.5228,-5.5228,-5.523,-5.5252,-5.5275,-5.5289,-5.532,-5.5336,-5.5362,-5.5324,-5.5262,-5.5421,-5.5327,-5.5411,-5.5412,-5.5446,-5.5444,-5.571,-5.5461,-5.546,-5.546,-5.5459,0,-5.5231,-5.5308,-5.526,-5.531,-5.5396,-5.5347,-5.5433,-5.5425,-5.5429,-5.5477,-5.5413,-5.546,-5.5407,-5.5449,-5.542,-5.5501,-5.5509,-5.5499,-5.549,-5.5504,-5.5506,-5.5516,-5.5503,-5.5466,-5.5465,-5.5464,-5.5463,0,-5.5433,-5.5404,-5.5488,-5.5479,-5.5479,-5.5543,-5.5535,-5.5582,-5.5563,-5.5625,-5.5637,-5.5607,-5.5654,-5.562,-5.5665,-5.5646,-5.5753,-5.5728,-5.5751,-5.5744,-5.583,-5.5822,-5.6111,-5.6147,-5.5875,-5.5878,-5.588,0,-5.5556,-5.5614,-5.5613,-5.5642,-5.5647,-5.5693,-5.5717,-5.5673,-5.5701,-5.5717,-5.5762,-5.5804,-5.5834,-5.5913,-5.5896,-5.5932,-5.5907,-5.6006,-5.5911,-5.5925,-5.5909,-5.5906,-5.5912,-5.6024,-5.6027,-5.603,-5.6032,0,-5.5778,-5.5762,-5.5799,-5.5833,-5.5864,-5.5888,-5.5907,-5.5934,-5.5891,-5.5925,-5.5973,-5.5998,-5.6047,-5.609,-5.6121,-5.6121,-5.607,-5.6063,-5.6084,-5.6098,-5.611,-5.6106,-5.5803,-5.6056,-5.6053,-5.6051,-5.605,-5.6049,-5.5943,-5.5993,-5.6002,-5.6047,-5.6058,-5.6079,-5.6123,-5.6113,-5.6152,-5.619,-5.6162,-5.6221,-5.6231,-5.6267,-5.6274,-5.632,-5.6279,-5.6309,-5.6317,-5.6325,-5.6338,-5.6104,-5.6325,-5.6324,-5.6323,-5.6323,-5.6322,0,-5.6162,-5.6166,-5.6208,-5.6239,-5.6275,-5.6228,-5.6248,-5.6281,-5.6334,-5.6348,-5.6381,-5.6439,-5.6482,-5.6471,-5.651,-5.6549,-5.6527,-5.656,-5.6556,-5.6558,-5.6371,-5.6349,-5.6578,-5.6578,-5.6578,-5.6578,-5.6578,-5.6578,-5.628,-5.6363,-5.635,-5.6439,-5.6441,-5.6499,-5.6516,-5.6535,-5.6547,-5.6615,-5.6651,-5.6645,-5.665,-5.669,-5.6728,-5.6723,-5.6741,-5.6783,-5.6771,-5.6596,-5.6571,-5.6546,-5.6525,-5.6787,-5.6788,-5.6953,-5.6955,-5.6956]},{"header":{"parameterUnit":"m.s-1","parameterCategory":1,"la1":30.2991,"la2":30.254,"lo1":-89.0895,"lo2":-89.0444,"dy":0.0017,"dx":0.0017,"nx":28,"ny":28,"refTime":"2025-12-21T09:00:00:Z","depth":0,"parameterNumber":3,"parameterNumberName":"V-component_of_WINDS"},"data":[0,0,0,0,0,0,0,0,0,0,0,0,0,0,0,0,0,0,0,0,0,0,0,0,0,0,0,0,0,0,0,0,0,0,0,0,0,0,0,0,0,0,0,0,0,0,0,0,0,0,0,0,0,0,0,0,0,0,0.8316,0.8316,0,0.8231,0.823,0.8229,0.8193,0.8193,0.8193,0.8194,0.8099,0.8097,0.8094,0,0,0,0,0,0,0,0,0,0,0,0,0,0.8444,0.8441,0.8317,0.8316,0.8314,0.8232,0.823,0.8229,0.8193,0.8193,0.8193,0.8194,0.81,0.8097,0.8094,0,0,0,0,0,0,0,0,0,0,0,0,0,0.8376,0.8441,0.8317,0.8287,0.8283,0.8232,0.823,0.8229,0.8193,0.8193,0.8194,0.8194,0.8101,0.8097,0.8093,0.8063,0,0,0.8081,0.8079,0,0,0,0,0,0,0,0,0.838,0.8372,0.8292,0.8289,0.8285,0.8223,0.824,0.8173,0.8193,0.8227,0.8194,0.8194,0.814,0.8133,0.8116,0.8059,0.8055,0.8081,0.8078,0.8076,0.8075,0,0,0,0,0,0,0,0.8385,0.8375,0.8283,0.8291,0.8286,0.8276,0.8267,0.8228,0.8183,0.8224,0.8221,0.8212,0.8138,0.812,0.8113,0.8053,0.8081,0.8077,0.8075,0.8073,0.797,0.797,0,0,0,0,0,0,0.8395,0.8379,0.8285,0.828,0.8334,0.8273,0.8263,0.8243,0.8183,0.8174,0.8212,0.8211,0.8126,0.8118,0.811,0.8072,0.8076,0.8073,0.807,0.797,0.797,0.797,0,0,0,0,0,0,0.8398,0.8387,0.8289,0.8329,0.8316,0.8271,0.8248,0.8241,0.8223,0.8174,0.8165,0.8202,0.8126,0.8115,0.8076,0.8069,0.8071,0.8067,0.7971,0.797,0.797,0.7997,0,0,0,0,0,0,0.8402,0.8388,0.8377,0.8329,0.8314,0.8258,0.8248,0.8239,0.8217,0.8214,0.8163,0.8154,0.8126,0.8082,0.8072,0.8063,0.8064,0.7971,0.7971,0.797,0.7996,0.7997,0.7998,0,0,0,0,0,0.8407,0.8386,0.8377,0.8366,0.8299,0.8258,0.8249,0.8218,0.8216,0.8204,0.8174,0.8156,0.8072,0.8079,0.8067,0.8056,0.7972,0.7971,0.797,0.7996,0.7997,0.7998,0,0,0,0,0,0,0.8431,0.8379,0.8368,0.8332,0.83,0.8252,0.8235,0.822,0.8186,0.8185,0.8147,0.8135,0.81,0.8074,0.8083,0.8026,0.802,0.8017,0.8044,0.8044,0.8045,0.8052,0.8061,0,0,0,0,0,0.8433,0.8405,0.8361,0.8333,0.8318,0.828,0.826,0.8241,0.8204,0.819,0.8156,0.812,0.8086,0.8064,0.8029,0.7993,0.7981,0.798,0.7981,0.7982,0.7979,0.796,0.7959,0.7967,0.7967,0.7967,0,0,0.8435,0.8403,0.8387,0.8337,0.831,0.8281,0.8268,0.8237,0.8215,0.8184,0.8146,0.8121,0.8078,0.8041,0.8023,0.8018,0.7975,0.7981,0.7982,0.7979,0.7959,0.7958,0.7958,0.7967,0.7967,0.7967,0,0,0.8424,0.8398,0.8373,0.8347,0.8308,0.8283,0.8277,0.8232,0.8215,0.8177,0.8154,0.8126,0.8067,0.8039,0.8017,0.8,0.7983,0.799,0.7994,0.7975,0.7975,0.7974,0.7969,0.7967,0.7988,0.7988,0.7988,0,0.8431,0.8389,0.8361,0.8333,0.8312,0.8287,0.8261,0.8236,0.8186,0.8172,0.8169,0.8097,0.8066,0.8023,0.802,0.8002,0.7994,0.7995,0.7977,0.7976,0.7975,0.797,0.7968,0.7989,0.7989,0.7989,0.7988,0,0.84,0.8371,0.8356,0.8312,0.8289,0.8262,0.823,0.821,0.8193,0.8169,0.8131,0.8094,0.8053,0.8041,0.8023,0.7996,0.7995,0.7985,0.7978,0.7976,0.797,0.7968,0.7991,0.799,0.799,0.7989,0,0,0.8399,0.8345,0.8339,0.832,0.8277,0.8253,0.8226,0.8189,0.8172,0.814,0.8115,0.8068,0.806,0.8035,0.8014,0.7998,0.7988,0.799,0.7988,0.7991,0.7958,0.7966,0.7964,0.7977,0.7977,0.7976,0.7962,0,0.8383,0.8335,0.8311,0.8273,0.8247,0.8224,0.82,0.817,0.8148,0.8121,0.8095,0.8063,0.8054,0.8039,0.8023,0.7993,0.7981,0.7994,0.7953,0.7952,0.7965,0.796,0.7968,0.7955,0.7959,0.7959,0.7958,0,0.8357,0.8329,0.8289,0.8252,0.824,0.8219,0.8185,0.816,0.8126,0.811,0.8085,0.8065,0.8034,0.8032,0.7989,0.7999,0.7981,0.7964,0.7963,0.7957,0.7955,0.7955,0.795,0.7949,0.7954,0.7955,0.7955,0,0.8362,0.8313,0.8284,0.8269,0.8224,0.821,0.8191,0.8157,0.8138,0.8107,0.8094,0.8059,0.8039,0.8013,0.7983,0.7984,0.7944,0.7938,0.793,0.7931,0.7921,0.7922,0.7914,0.791,0.791,0.7911,0.7911,0,0.8346,0.8322,0.8286,0.8268,0.8242,0.8215,0.8189,0.8167,0.8138,0.8115,0.8092,0.807,0.8034,0.8007,0.7984,0.7953,0.7944,0.793,0.7924,0.7932,0.7934,0.7919,0.7919,0.791,0.791,0.791,0.791,0,0.8346,0.8321,0.8288,0.825,0.824,0.8222,0.8189,0.817,0.8148,0.8119,0.8111,0.8075,0.8043,0.8012,0.7967,0.7952,0.7921,0.7913,0.7934,0.793,0.7924,0.7925,0.7906,0.7902,0.7901,0.7901,0.7901,0,0.8337,0.8319,0.8281,0.8266,0.8248,0.8222,0.8203,0.8176,0.8157,0.812,0.8105,0.8073,0.8045,0.7994,0.7963,0.793,0.7921,0.7916,0.7915,0.7925,0.7921,0.7922,0.7921,0.7917,0.7917,0.7917,0.7917,0,0.8325,0.8314,0.8289,0.8261,0.824,0.8215,0.8189,0.8177,0.8145,0.8125,0.8094,0.8073,0.803,0.7998,0.7962,0.7939,0.7923,0.7918,0.7915,0.7922,0.7935,0.7929,0.7936,0.7918,0.7918,0.7918,0.7918,0.7918,0.832,0.8304,0.8276,0.825,0.8229,0.8206,0.8188,0.8166,0.814,0.8106,0.8091,0.806,0.8028,0.7978,0.7957,0.7931,0.7927,0.7921,0.792,0.7919,0.7921,0.794,0.7924,0.7924,0.7924,0.7924,0.7924,0,0.8307,0.8289,0.8265,0.8233,0.8212,0.8202,0.8174,0.8157,0.8131,0.8104,0.8079,0.8044,0.8013,0.7982,0.7949,0.7935,0.7926,0.7927,0.7927,0.7923,0.7926,0.7933,0.7934,0.7934,0.7934,0.7934,0.7934,0.7934,0.8298,0.8271,0.8258,0.8222,0.8203,0.8175,0.816,0.8139,0.8118,0.8082,0.8058,0.8039,0.801,0.7976,0.7947,0.7938,0.7927,0.793,0.7919,0.7923,0.7922,0.7921,0.7928,0.7928,0.7928,0.7918,0.7918,0.7918]}]]